Weather in Semyinskoye

Russia / Vladimir Oblast     56°21′53″N   39°45′52″E
В апреле 2022 года жителям России запретили посещать сайт meteo.paraplan.net по решению Генеральной прокуратуры. Аудитория сайта уменьшилась в 10 раз. Владельцы сайта не видят смысла в поддержке погодного сервера в таких условиях. Сайт будет закрыт в октябре.
temp.,
°C
wind,
m/s
gust,
m/s
humid.,
%
clouds,
%
prec.,
mm/h
press.,
hPa
HPBL,
m
29 september, thu
thu2900:00+8wsw2494100 0.1 1004246
03:00+7sw2595100 0.1 1005263
06:00+7sw2596100 0.0 1006269
09:00+9wsw2485100 0.0 1007338
12:00+11sw347591 0.0 1009570
15:00+13ssw457176 0.0 1010798
18:00+11s238666 0.0 101177
21:00+11s23905 0.0 101373
30 september, fri
fri3000:00+8s229168 0.0 101422
03:00+8s3394100 0.0 101554
06:00+8s3694100 0.0 1016120
09:00+11s487983 0.0 1016279
12:00+15s6965100 0.0 1016699
15:00+15s5975100 0.0 1016691
18:00+13s3786100 0.0 1016164
21:00+13sse3997100 1.5 1016353
1 october, sat
sat100:00+13ssw3799100 0.8 1016379
03:00+12wsw2599100 0.9 1016301
06:00+12n1197100 0.1 101733
09:00+12ene1193100 0.1 1017133
12:00+13ene1296100 0.8 1016139
15:00+12ne2597100 2.7 1014268
18:00+11nne3696100 2.9 1014223
21:00+11e2598100 2.9 1012229
2 october, sun
sun200:00+12se3799100 1.5 1010307
03:00+12ssw3799100 3.8 1008351
06:00+12sw2698100 0.0 1008383
09:00+13sw359387 0.1 1008398
12:00+13wsw4584100 0.4 1009657
15:00+12w2487100 0.7 1010426
18:00+10n4694100 0.4 1011342
21:00+9nne3694100 0.4 1012342
3 october, mon
mon300:00+9ne3594100 0.0 1013308
03:00+8ne4795100 0.0 1012313
06:00+10ne599798 0.0 1009287
09:00+11ene51295100 0.0 1008414
12:00+12e71394100 0.3 1006494
15:00+16e61287100 0.9 1005732
18:00+15ese71475100 0.0 1004692
21:00+15se91568100 0.6 10031045